Weather History for Frankfurt / M-Flughafen, Germany

Change the Weather History Date:

Thursday, February 13, 2014

  Actual Average Record
Temperature  
Mean Temperature 42 °F -  
Max Temperature 45 °F 45 °F - ()
Min Temperature 39 °F 33 °F - ()
Degree Days  
Heating Degree Days 23    
Moisture  
Dew Point 39 °F    
Average Humidity 87    
Maximum Humidity 100    
Minimum Humidity 63    
Precipitation  
Precipitation 0.39 in - - ()
Sea Level Pressure  
Sea Level Pressure 29.49 in    
Wind  
Wind Speed 10 mph ()    
Max Wind Speed 17 mph    
Max Gust Speed 32 mph    
Visibility 7.1 miles    
Events Rain    
T = Trace of Precipitation, MM = Missing Value Source: Averaged Metar Reports

Daily Weather History Graph

Daily Weather History Graph

Search for Another Location

Airport:

Trip Planner

Search our weather history database for the weather conditions in past years. The results will help you decide how hot, cold, wet, or windy it might be!

Date:

Astronomy

Feb. 13, 2014 Rise Set
Actual Time 7:40 AM CET 5:40 PM CET
Civil Twilight 7:06 AM CET 6:13 PM CET
Nautical Twilight 6:28 AM CET 6:51 PM CET
Astronomical Twilight 5:51 AM CET 7:29 PM CET
Moon 4:32 PM CET (2/13) 6:26 AM CET (2/13)
Length of Visible Light 11h 07m
Length of Day
10h 00m
Waxing Gibbous, 98% of the Moon is Illuminated
Feb 13
Waxing Gibbous
Feb 15
Full
Feb 22
Last Quarter
Mar 1
New
Mar 8
First Quarter

Hourly Weather History & Observations

Time (CET) Temp. Windchill Dew Point Humidity Pressure Visibility Wind Dir Wind Speed Gust Speed Precip Events Conditions
12:00 AM 40 °F - 32 °F 63% 29.63 in 25 mi SSW 4.5 mph - - Rain Light Rain
12:20 AM 41.0 °F 33.1 °F 33.8 °F 76% 29.62 in 6.2 mi SSW 15.0 mph - N/A Rain Rain
12:50 AM 41.0 °F 33.9 °F 37.4 °F 87% 29.62 in 6.2 mi SW 12.7 mph - N/A Rain Rain
1:00 AM 41 °F - 37 °F 81% 29.63 in 12 mi SW 11.2 mph - - Rain Rain
1:20 AM 41.0 °F 36.4 °F 37.4 °F 87% 29.59 in 6.2 mi SSW 6.9 mph - N/A Rain Light Rain
1:50 AM 41.0 °F 34.3 °F 39.2 °F 93% 29.62 in 6.2 mi SSW 11.5 mph - N/A   Mostly Cloudy
2:00 AM 41 °F - 38 °F 85% 29.63 in 31 mi SSW 11.2 mph - - Rain Light Rain
2:20 AM 41.0 °F 34.7 °F 39.2 °F 93% 29.62 in 6.2 mi SSW 10.4 mph - N/A Rain Light Rain
2:50 AM 42.8 °F 35.8 °F 39.2 °F 87% 29.62 in 6.2 mi SSW 13.8 mph - N/A Rain Light Rain
3:00 AM 42 °F - 38 °F 82% 29.63 in 25 mi SSW 13.4 mph - - Rain Light Rain
3:20 AM 42.8 °F 36.6 °F 39.2 °F 87% 29.59 in 6.2 mi SSW 11.5 mph - N/A Rain Light Rain
3:50 AM 42.8 °F 36.2 °F 39.2 °F 87% 29.59 in 6.2 mi SSW 12.7 mph - N/A Rain Light Rain
4:20 AM 42.8 °F 36.2 °F 41.0 °F 93% 29.59 in 6.2 mi South 12.7 mph - N/A Rain Light Rain
4:50 AM 42.8 °F 36.2 °F 41.0 °F 93% 29.59 in 5.0 mi SSW 12.7 mph - N/A Rain Rain
5:00 AM 42 °F - 40 °F 90% 29.61 in 5 mi SSW 11.2 mph - - Rain Rain
5:20 AM 42.8 °F 35.4 °F 41.0 °F 93% 29.59 in 6.2 mi SW 15.0 mph 31.1 mph N/A Rain Light Rain
5:50 AM 41.0 °F 35.2 °F 41.0 °F 100% 29.56 in 6.2 mi South 9.2 mph 21.9 mph N/A   Partly Cloudy
6:00 AM 42 °F - 39 °F 87% 29.60 in 31 mi South 8.9 mph - - Rain Light Rain
6:20 AM 42.8 °F 36.6 °F 41.0 °F 93% 29.56 in 6.2 mi South 11.5 mph - N/A   Mostly Cloudy
6:50 AM 42.8 °F 36.2 °F 39.2 °F 87% 29.56 in 6.2 mi SSW 12.7 mph - N/A   Scattered Clouds
7:00 AM 42 °F - 39 °F 85% 29.60 in 31 mi SSW 13.4 mph - -   Partly Cloudy
7:20 AM 41.0 °F 34.7 °F 39.2 °F 93% 29.56 in 6.2 mi South 10.4 mph 24.2 mph N/A   Partly Cloudy
7:50 AM 41.0 °F 33.9 °F 39.2 °F 93% 29.56 in 6.2 mi SSW 12.7 mph - N/A   Partly Cloudy
8:00 AM 42 °F - 39 °F 84% 29.58 in 25 mi SSW 13.4 mph - - Rain Light Rain Showers
8:20 AM 42.8 °F 36.2 °F 39.2 °F 87% 29.56 in 6.2 mi SSW 12.7 mph - N/A   Mostly Cloudy
8:50 AM 42.8 °F 36.6 °F 39.2 °F 87% 29.53 in 6.2 mi South 11.5 mph - N/A   Mostly Cloudy
9:00 AM 43 °F - 39 °F 79% 29.56 in 19 mi South 11.2 mph - -   Mostly Cloudy
9:20 AM 42.8 °F 37.0 °F 39.2 °F 87% 29.53 in 6.2 mi SSW 10.4 mph 24.2 mph N/A   Mostly Cloudy
9:50 AM 44.6 °F 39.2 °F 39.2 °F 81% 29.50 in 6.2 mi SSW 10.4 mph - N/A   Mostly Cloudy
10:20 AM 44.6 °F 39.2 °F 39.2 °F 81% 29.50 in 6.2 mi South 10.4 mph 21.9 mph N/A   Mostly Cloudy
10:50 AM 46.4 °F 41.5 °F 39.2 °F 76% 29.47 in 6.2 mi South 10.4 mph 32.2 mph N/A   Mostly Cloudy
11:00 AM 45 °F - 39 °F 71% 29.49 in 19 mi South 11.2 mph - -   Overcast
11:20 AM 46.4 °F 42.9 °F 39.2 °F 76% 29.44 in 6.2 mi SSE 6.9 mph - N/A   Overcast
11:50 AM 46.4 °F 43.5 °F 39.2 °F 76% 29.42 in 6.2 mi SSE 5.8 mph - N/A   Overcast
12:00 PM 46 °F - 38 °F 67% 29.44 in 19 mi SSE 6.7 mph - -   Overcast
12:20 PM 46.4 °F 44.3 °F 39.2 °F 76% 29.39 in 6.2 mi SE 4.6 mph - N/A Rain Rain
12:50 PM 44.6 °F 40.7 °F 41.0 °F 87% 29.36 in 6.2 mi SSE 6.9 mph - N/A Rain Rain
1:00 PM 44 °F - 40 °F 83% 29.38 in 7 mi SSE 6.7 mph - - Rain Rain
1:20 PM 42.8 °F 38.6 °F 41.0 °F 93% 29.36 in 5.6 mi SSE 6.9 mph - N/A Rain Rain
1:50 PM 41.0 °F 35.2 °F 39.2 °F 93% 29.33 in 5.6 mi SE 9.2 mph 20.7 mph N/A Rain Rain
2:00 PM 42 °F - 39 °F 83% 29.35 in 6 mi SE 8.9 mph - - Rain Rain
2:20 PM 41.0 °F 39.0 °F 39.2 °F 93% 29.30 in 6.2 mi SSE 3.5 mph - N/A Rain Rain
2:50 PM 41.0 °F 37.1 °F 39.2 °F 93% 29.30 in 6.2 mi SSE 5.8 mph - N/A Rain Rain
3:00 PM 41 °F - 38 °F 87% 29.31 in 6 mi SSE 6.7 mph - - Rain Rain
3:20 PM 41.0 °F - 37.4 °F 87% 29.30 in 6.2 mi SSW 2.3 mph - N/A Rain Rain
3:50 PM 41.0 °F - 39.2 °F 93% 29.30 in 6.2 mi NW 1.2 mph - N/A Rain Rain
4:20 PM 41.0 °F 35.8 °F 39.2 °F 93% 29.30 in 6.2 mi WSW 8.1 mph - N/A Rain Light Rain
4:50 PM 41.0 °F 34.7 °F 39.2 °F 93% 29.33 in 6.2 mi SW 10.4 mph - N/A   Mostly Cloudy
5:00 PM 40 °F - 38 °F 92% 29.34 in 16 mi SW 8.9 mph - - Rain Light Rain
5:20 PM 41.0 °F 33.9 °F 39.2 °F 93% 29.33 in 6.2 mi WSW 12.7 mph - N/A   Mostly Cloudy
5:50 PM 41.0 °F 34.3 °F 39.2 °F 93% 29.36 in 6.2 mi SSW 11.5 mph - N/A   Mostly Cloudy
6:00 PM 40 °F - 38 °F 88% 29.38 in 25 mi SSW 11.2 mph - -   Mostly Cloudy
6:20 PM 41.0 °F 33.9 °F 39.2 °F 93% 29.39 in 6.2 mi SW 12.7 mph - N/A   Mostly Cloudy
6:50 PM 41.0 °F 33.1 °F 39.2 °F 93% 29.39 in 6.2 mi SW 15.0 mph - N/A   Mostly Cloudy
7:00 PM 40 °F - 38 °F 88% 29.42 in 31 mi SW 15.7 mph - -   Partly Cloudy
7:20 PM 41.0 °F 34.7 °F 39.2 °F 93% 29.42 in 6.2 mi SW 10.4 mph - N/A   Overcast
7:50 PM 41.0 °F 34.7 °F 39.2 °F 93% 29.44 in 6.2 mi WSW 10.4 mph - N/A   Overcast
8:00 PM 41 °F - 38 °F 84% 29.46 in 31 mi WSW 8.9 mph - -   Overcast
8:20 PM 41.0 °F 34.7 °F 39.2 °F 93% 29.47 in 6.2 mi SW 10.4 mph - N/A Rain Light Rain
8:50 PM 41.0 °F 33.5 °F 39.2 °F 93% 29.50 in 6.2 mi SW 13.8 mph - N/A Rain Light Rain
9:00 PM 41 °F - 39 °F 88% 29.52 in 31 mi SW 13.4 mph - - Rain Light Rain
9:20 PM 41.0 °F 32.5 °F 39.2 °F 93% 29.53 in 6.2 mi SW 17.3 mph - N/A Rain Light Rain
9:50 PM 41.0 °F 33.9 °F 39.2 °F 93% 29.53 in 6.2 mi SW 12.7 mph - N/A   Mostly Cloudy
10:20 PM 41.0 °F 33.5 °F 37.4 °F 87% 29.56 in 6.2 mi SW 13.8 mph - N/A   Mostly Cloudy
10:50 PM 41.0 °F 33.9 °F 37.4 °F 87% 29.59 in 6.2 mi SW 12.7 mph - N/A   Mostly Cloudy
11:00 PM 41 °F - 36 °F 77% 29.62 in 31 mi SW 13.4 mph - -   Mostly Cloudy
11:20 PM 41.0 °F 34.3 °F 35.6 °F 81% 29.62 in 6.2 mi WSW 11.5 mph - N/A   Mostly Cloudy
11:50 PM 39.2 °F 32.5 °F 33.8 °F 81% 29.65 in 6.2 mi SW 10.4 mph - N/A   Partly Cloudy